Airfield :
LOGIN :

Register | Disclaimer

   EN    FR    IT 

 










Legend :    VFR   Marginal VFR   IFR   Intensive IFR   Very Intensive IFR
Visi :
Ceiling :
>= 8 km
>= 3000ft
5 to 8 km
1000 to 3000 ft
1500m to 5 km
500 to 1000 ft
800 to 1500m
200 to 500 ft
< 800m
< 200 ft
Symbols :   Thunderstorms  Fog  Heavy snow  Heavy precipitations  Wind > 20 kt
SIGMETs :     Misc.  Thunderstorms  Icing  Turbulence  Mountain Waves  Volcanic Ashes







- Airport Elevation : 138 ft
- IATA code : RLG


ETNL - Rostock Laage

CURRENT METAR :
  • 230520Z 28012KT 9999 FEW013 BKN017 05/02 Q1016 WHT

EXPIRED METARs :
  • 230420Z 28011KT 9999 BKN014 05/02 Q1015 GRN
  • 230320Z 29011KT 9999 FEW014 BKN025 05/02 Q1015 BLU
  • 230220Z 30009KT 9999 BKN031 05/02 Q1015 BLU

TAF TAF ETNL
Valid from the 23 at 05:00 until the 23 at 17:00 UTC


230415Z 2305/2317 29015G25KT 9999 NSW SCT020
TEMPO 2312/2317 30020G30KT 9999 NSW SCT015 BY ETGL
No reported NOTAMs for that airfield.



MET'MAP, your aeronautical weather chart ! - Copyright ORBIFLY December 2007 - Disclaimer

ORBIFLY MET'MAP TEAM :

Programming & Development : Alexandra Zaïnal
Concept & Development : Baudouin d'Aumeries
Co-Development & Prog : Marc-Olivier Méhu
Technical & hardware support : Manuel Goepfert

Contact : metmap@orbifly.com




SOURCES & CREDITS :

   NOAA